Location: Le Domaine
(47.0333°N, 76.5361°W)
Time: 05:54:24
(UTC-05:00)

Transit 2A Rocket - Pass Details

Date: 23 November 2019
Orbit: 594 x 909 km, 66.7° (Epoch: 11 December)

Event Time Altitude Azimuth Distance (km) Brightness Sun altitude
Exits shadow 05:10:33 43° 340° (NNW) 871 5.1 -21.7°
Maximum altitude 05:11:57 75° 54° (NE) 645 4.6 -21.5°
Drops below altitude 10° 05:16:31 10° 141° (SE) 2,040 7.8 -20.7°
Sets 05:18:53 0° 143° (SE) 2,990 8.8 -20.3°
